TimeEDT,TemperatureF,Dew PointF,Humidity,Sea Level PressureIn,VisibilityMPH,Wind Direction,Wind SpeedMPH,Gust SpeedMPH,PrecipitationIn,Events,Conditions,WindDirDegrees,DateUTC
12:54 AM,53.1,51.1,93,30.29,10.0,Calm,Calm,-,N/A,,Clear,0,2011-10-06 04:54:00
1:54 AM,52.0,48.9,89,30.30,10.0,Calm,Calm,-,N/A,,Clear,0,2011-10-06 05:54:00
2:54 AM,52.0,50.0,93,30.30,10.0,Calm,Calm,-,N/A,,Clear,0,2011-10-06 06:54:00
3:54 AM,51.1,50.0,96,30.31,10.0,Calm,Calm,-,N/A,,Clear,0,2011-10-06 07:54:00
4:54 AM,51.1,48.9,92,30.31,10.0,Calm,Calm,-,N/A,,Clear,0,2011-10-06 08:54:00
5:54 AM,55.9,48.9,77,30.33,10.0,NNE,9.2,-,N/A,,Clear,20,2011-10-06 09:54:00
6:54 AM,54.0,48.0,80,30.36,10.0,North,6.9,-,N/A,,Clear,10,2011-10-06 10:54:00
7:54 AM,55.0,46.9,74,30.38,10.0,NNE,9.2,-,N/A,,Clear,20,2011-10-06 11:54:00
8:54 AM,57.9,46.9,67,30.39,10.0,NNE,9.2,-,N/A,,Clear,20,2011-10-06 12:54:00
9:54 AM,60.1,46.0,60,30.40,10.0,NNE,9.2,-,N/A,,Clear,30,2011-10-06 13:54:00
10:54 AM,63.0,46.0,54,30.41,10.0,NE,8.1,-,N/A,,Clear,50,2011-10-06 14:54:00
11:54 AM,64.9,46.0,50,30.40,10.0,NE,5.8,-,N/A,,Clear,40,2011-10-06 15:54:00
12:54 PM,66.9,44.1,44,30.39,10.0,NE,4.6,-,N/A,,Clear,40,2011-10-06 16:54:00
1:54 PM,68.0,46.0,45,30.36,10.0,Calm,Calm,-,N/A,,Clear,0,2011-10-06 17:54:00
2:54 PM,70.0,48.9,47,30.35,10.0,East,5.8,-,N/A,,Clear,90,2011-10-06 18:54:00
3:54 PM,70.0,48.9,47,30.35,10.0,Calm,Calm,-,N/A,,Clear,0,2011-10-06 19:54:00
4:54 PM,69.1,48.9,49,30.34,10.0,ESE,5.8,-,N/A,,Clear,110,2011-10-06 20:54:00
5:54 PM,68.0,50.0,52,30.34,10.0,East,3.5,-,N/A,,Clear,100,2011-10-06 21:54:00
6:54 PM,60.1,52.0,75,30.35,10.0,Calm,Calm,-,N/A,,Clear,0,2011-10-06 22:54:00
7:54 PM,55.9,52.0,87,30.35,10.0,Calm,Calm,-,N/A,,Clear,0,2011-10-06 23:54:00
8:54 PM,53.1,52.0,96,30.37,10.0,Calm,Calm,-,N/A,,Clear,0,2011-10-07 00:54:00
9:54 PM,52.0,50.0,93,30.38,10.0,Calm,Calm,-,N/A,,Clear,0,2011-10-07 01:54:00
10:54 PM,51.1,50.0,96,30.39,10.0,Calm,Calm,-,N/A,,Clear,0,2011-10-07 02:54:00
11:54 PM,50.0,48.9,96,30.39,10.0,Calm,Calm,-,N/A,,Clear,0,2011-10-07 03:54:00